OAL114 LCPH-LGAV

Flight info

Callsign OAL114
Flight time 1h 20m
Altitude 30000
Route GENOS M42 ALKIS UL609 RDS UL995 VARIX
Aircraft B738/M-VGDW/C

Departure

Time 2026-04-14 15:51
Airport Paphos International Airport (LCPH)

Arrival

Time 2026-04-14 17:12
Airport Athens Eleftherios Venizelos International Airport (LGAV)
Time Latitude Longitude Altitude Speed Heading
2026-04-14 15:18 34.71299 32.48640 45 ft 0 kts 154°
2026-04-14 15:40 34.71304 32.48637 45 ft 3 kts 154°
2026-04-14 15:40 34.71320 32.48627 43 ft 3 kts 154°
2026-04-14 15:40 34.71336 32.48618 43 ft 3 kts 154°
2026-04-14 15:41 34.71353 32.48608 42 ft 3 kts 153°
2026-04-14 15:41 34.71366 32.48594 45 ft 3 kts 117°
2026-04-14 15:41 34.71370 32.48573 45 ft 3 kts 68°
2026-04-14 15:41 34.71366 32.48560 44 ft 2 kts 68°
2026-04-14 15:42 34.71366 32.48559 44 ft 0 kts 68°
2026-04-14 15:43 34.71366 32.48560 44 ft 0 kts 68°
2026-04-14 15:43 34.71371 32.48575 45 ft 4 kts 68°
2026-04-14 15:44 34.71387 32.48622 45 ft 8 kts 66°
2026-04-14 15:44 34.71416 32.48699 45 ft 11 kts 65°
2026-04-14 15:44 34.71452 32.48794 45 ft 13 kts 65°
2026-04-14 15:44 34.71489 32.48893 45 ft 13 kts 65°
2026-04-14 15:45 34.71529 32.48968 45 ft 3 kts 34°
2026-04-14 15:45 34.71531 32.48970 45 ft 0 kts 31°
2026-04-14 15:46 34.71532 32.48970 45 ft 0 kts 31°
2026-04-14 15:46 34.71546 32.48978 45 ft 4 kts 24°
2026-04-14 15:47 34.71578 32.48993 46 ft 5 kts 20°
2026-04-14 15:47 34.71613 32.49009 46 ft 7 kts 21°
2026-04-14 15:47 34.71636 32.49070 46 ft 10 kts 98°
2026-04-14 15:47 34.71610 32.49162 46 ft 12 kts 110°
2026-04-14 15:48 34.71577 32.49270 45 ft 15 kts 110°
2026-04-14 15:48 34.71538 32.49398 43 ft 17 kts 110°
2026-04-14 15:48 34.71495 32.49536 43 ft 17 kts 110°
2026-04-14 15:48 34.71455 32.49669 39 ft 16 kts 110°
2026-04-14 15:49 34.71407 32.49769 43 ft 12 kts 152°
2026-04-14 15:49 34.71366 32.49833 44 ft 9 kts 70°
2026-04-14 15:49 34.71408 32.49832 43 ft 6 kts 297°
2026-04-14 15:49 34.71415 32.49808 43 ft 0 kts 290°
2026-04-14 15:50 34.71429 32.49761 42 ft 22 kts 290°
2026-04-14 15:51 34.71572 32.49290 44 ft 96 kts 290°
2026-04-14 15:51 34.71878 32.48295 55 ft 155 kts 291°
2026-04-14 15:51 34.72253 32.47012 721 ft 161 kts 289°
2026-04-14 15:51 34.72404 32.45640 1435 ft 172 kts 264°
2026-04-14 15:52 34.72126 32.44192 2105 ft 183 kts 256°
2026-04-14 15:52 34.71753 32.42646 2654 ft 199 kts 255°
2026-04-14 15:52 34.71337 32.40965 3132 ft 217 kts 255°
2026-04-14 15:52 34.70902 32.39143 3563 ft 230 kts 254°
2026-04-14 15:53 34.70449 32.37228 4037 ft 246 kts 254°
2026-04-14 15:53 34.69974 32.35120 4401 ft 268 kts 254°
2026-04-14 15:53 34.69488 32.32895 5177 ft 274 kts 254°
2026-04-14 15:53 34.69001 32.30642 5992 ft 278 kts 254°
2026-04-14 15:54 34.68009 32.26025 7558 ft 284 kts 254°
2026-04-14 15:54 34.67517 32.23735 8405 ft 284 kts 255°
2026-04-14 15:54 34.67016 32.21403 9247 ft 285 kts 255°
2026-04-14 15:55 34.66513 32.19064 10085 ft 287 kts 255°
2026-04-14 15:55 34.66052 32.16659 10531 ft 302 kts 264°
2026-04-14 15:55 34.66115 32.14013 10722 ft 325 kts 275°
2026-04-14 15:55 34.66346 32.11193 10889 ft 347 kts 276°
2026-04-14 15:56 34.66593 32.08216 11266 ft 359 kts 275°
2026-04-14 15:56 34.66833 32.05175 11920 ft 363 kts 275°
2026-04-14 15:56 34.67061 32.02114 12639 ft 364 kts 275°
2026-04-14 15:56 34.67281 31.99033 13362 ft 366 kts 275°
2026-04-14 15:57 34.67495 31.95977 14038 ft 369 kts 275°
2026-04-14 15:57 34.67710 31.92870 14690 ft 370 kts 275°
2026-04-14 15:57 34.67981 31.89761 15386 ft 370 kts 281°
2026-04-14 15:57 34.68731 31.86768 16084 ft 370 kts 288°
2026-04-14 15:58 34.69586 31.83815 16768 ft 371 kts 288°
2026-04-14 15:58 34.70170 31.81819 17210 ft 372 kts 288°
2026-04-14 15:58 34.71316 31.77885 18061 ft 373 kts 288°
2026-04-14 15:58 34.71885 31.75915 18488 ft 374 kts 288°
2026-04-14 15:59 34.72742 31.72924 19015 ft 376 kts 288°
2026-04-14 15:59 34.73600 31.69907 19457 ft 380 kts 288°
2026-04-14 15:59 34.74464 31.66853 19903 ft 384 kts 288°
2026-04-14 15:59 34.75333 31.63769 20375 ft 387 kts 288°
2026-04-14 16:00 34.76206 31.60664 20847 ft 390 kts 288°
2026-04-14 16:00 34.77086 31.57529 21326 ft 392 kts 288°
2026-04-14 16:00 34.77971 31.54368 21756 ft 395 kts 288°
2026-04-14 16:00 34.78861 31.51188 22172 ft 399 kts 288°
2026-04-14 16:01 34.79747 31.48019 22577 ft 402 kts 288°
2026-04-14 16:01 34.80652 31.44778 22994 ft 405 kts 288°
2026-04-14 16:01 34.81560 31.41523 23401 ft 408 kts 288°
2026-04-14 16:01 34.82474 31.38242 23793 ft 410 kts 288°
2026-04-14 16:02 34.83393 31.34939 24140 ft 412 kts 288°
2026-04-14 16:02 34.84303 31.31663 24533 ft 413 kts 288°
2026-04-14 16:02 34.85224 31.28348 24917 ft 414 kts 288°
2026-04-14 16:02 34.86147 31.25018 25282 ft 415 kts 288°
2026-04-14 16:03 34.87072 31.21677 25613 ft 417 kts 288°
2026-04-14 16:03 34.88001 31.18320 25940 ft 419 kts 288°
2026-04-14 16:03 34.88931 31.14951 26271 ft 421 kts 288°
2026-04-14 16:03 34.89868 31.11557 26627 ft 422 kts 288°
2026-04-14 16:04 34.90800 31.08173 27091 ft 420 kts 288°
2026-04-14 16:04 34.91728 31.04803 27621 ft 417 kts 288°
2026-04-14 16:04 34.92637 31.01495 28129 ft 414 kts 288°
2026-04-14 16:04 34.93549 30.98174 28580 ft 413 kts 288°
2026-04-14 16:05 34.94460 30.94851 29030 ft 411 kts 288°
2026-04-14 16:05 34.95364 30.91550 29542 ft 409 kts 288°
2026-04-14 16:05 34.96260 30.88274 30067 ft 406 kts 288°
2026-04-14 16:06 34.98057 30.81690 30169 ft 410 kts 288°
2026-04-14 16:06 34.99842 30.75138 30167 ft 403 kts 288°
2026-04-14 16:07 35.01603 30.68657 30181 ft 403 kts 288°
2026-04-14 16:07 35.03361 30.62173 30185 ft 403 kts 287°
2026-04-14 16:08 35.05107 30.55714 30178 ft 403 kts 287°
2026-04-14 16:08 35.06861 30.49213 30182 ft 403 kts 287°
2026-04-14 16:09 35.08611 30.42711 30185 ft 403 kts 287°
2026-04-14 16:09 35.10355 30.36214 30184 ft 402 kts 287°
2026-04-14 16:10 35.12095 30.29719 30183 ft 402 kts 287°
2026-04-14 16:10 35.13830 30.23224 30185 ft 402 kts 287°
2026-04-14 16:11 35.15560 30.16732 30187 ft 401 kts 287°
2026-04-14 16:11 35.17274 30.10288 30189 ft 401 kts 287°
2026-04-14 16:12 35.18997 30.03794 30189 ft 402 kts 287°
2026-04-14 16:12 35.21394 29.97616 30194 ft 405 kts 302°
2026-04-14 16:13 35.24772 29.92063 30183 ft 407 kts 304°
2026-04-14 16:13 35.28187 29.86525 30196 ft 407 kts 304°
2026-04-14 16:14 35.31584 29.80969 30192 ft 407 kts 303°
2026-04-14 16:14 35.34970 29.75397 30186 ft 408 kts 303°
2026-04-14 16:15 35.38350 29.69818 30183 ft 408 kts 303°
2026-04-14 16:15 35.41703 29.64272 30186 ft 408 kts 303°
2026-04-14 16:16 35.45082 29.58677 30183 ft 408 kts 303°
2026-04-14 16:16 35.48448 29.53093 30180 ft 407 kts 303°
2026-04-14 16:17 35.51819 29.47492 30181 ft 407 kts 303°
2026-04-14 16:17 35.55164 29.41925 30185 ft 407 kts 303°
2026-04-14 16:18 35.58529 29.36317 30184 ft 407 kts 303°
2026-04-14 16:18 35.61884 29.30714 30187 ft 407 kts 303°
2026-04-14 16:19 35.65238 29.25107 30185 ft 407 kts 303°
2026-04-14 16:19 35.68594 29.19485 30184 ft 407 kts 303°
2026-04-14 16:20 35.71943 29.13867 30193 ft 407 kts 303°
2026-04-14 16:20 35.75301 29.08225 30192 ft 407 kts 303°
2026-04-14 16:21 35.78648 29.02590 30198 ft 407 kts 303°
2026-04-14 16:21 35.81993 28.96952 30199 ft 407 kts 303°
2026-04-14 16:22 35.85336 28.91307 30196 ft 407 kts 303°
2026-04-14 16:22 35.88674 28.85660 30191 ft 407 kts 303°
2026-04-14 16:23 35.92007 28.80012 30196 ft 407 kts 303°
2026-04-14 16:23 35.95316 28.74400 30198 ft 407 kts 303°
2026-04-14 16:24 35.98652 28.68752 30203 ft 407 kts 303°
2026-04-14 16:24 36.01989 28.63101 30199 ft 407 kts 303°
2026-04-14 16:25 36.05316 28.57454 30203 ft 406 kts 303°
2026-04-14 16:25 36.08644 28.51795 30195 ft 406 kts 303°
2026-04-14 16:26 36.11946 28.46173 30199 ft 406 kts 303°
2026-04-14 16:26 36.15259 28.40510 30191 ft 406 kts 303°
2026-04-14 16:27 36.18562 28.34837 30196 ft 406 kts 303°
2026-04-14 16:27 36.21748 28.29356 30193 ft 406 kts 303°
2026-04-14 16:28 36.25048 28.23672 30191 ft 406 kts 303°
2026-04-14 16:28 36.28345 28.17981 30185 ft 406 kts 303°
2026-04-14 16:29 36.31640 28.12288 30188 ft 406 kts 303°
2026-04-14 16:29 36.34698 28.06458 30180 ft 404 kts 294°
2026-04-14 16:30 36.36969 28.00085 30181 ft 404 kts 292°
2026-04-14 16:30 36.39234 27.93690 30189 ft 404 kts 292°
2026-04-14 16:31 36.41517 27.87308 30191 ft 404 kts 292°
2026-04-14 16:31 36.43804 27.80925 30185 ft 404 kts 292°
2026-04-14 16:32 36.46075 27.74576 30189 ft 404 kts 292°
2026-04-14 16:32 36.48354 27.68177 30188 ft 404 kts 292°
2026-04-14 16:33 36.50625 27.61774 30190 ft 404 kts 292°
2026-04-14 16:33 36.52891 27.55372 30186 ft 404 kts 292°
2026-04-14 16:34 36.55153 27.48969 30190 ft 404 kts 292°
2026-04-14 16:34 36.57398 27.42599 30187 ft 404 kts 292°
2026-04-14 16:35 36.59651 27.36197 30184 ft 404 kts 292°
2026-04-14 16:35 36.61899 27.29791 30184 ft 403 kts 292°
2026-04-14 16:36 36.64142 27.23388 30187 ft 403 kts 292°
2026-04-14 16:36 36.66380 27.16987 30185 ft 403 kts 292°
2026-04-14 16:37 36.68615 27.10577 30191 ft 403 kts 292°
2026-04-14 16:37 36.70843 27.04160 30186 ft 403 kts 292°
2026-04-14 16:38 36.73055 26.97774 30189 ft 403 kts 291°
2026-04-14 16:38 36.75280 26.91340 30187 ft 403 kts 291°
2026-04-14 16:39 36.77484 26.84952 30190 ft 403 kts 291°
2026-04-14 16:39 36.79699 26.78518 30187 ft 403 kts 291°
2026-04-14 16:40 36.81911 26.72079 30190 ft 403 kts 291°
2026-04-14 16:40 36.84118 26.65648 30186 ft 403 kts 291°
2026-04-14 16:41 36.86327 26.59216 30188 ft 403 kts 291°
2026-04-14 16:41 36.88518 26.52824 30191 ft 402 kts 291°
2026-04-14 16:42 36.90714 26.46386 30188 ft 402 kts 291°
2026-04-14 16:42 36.92903 26.39948 30188 ft 402 kts 291°
2026-04-14 16:43 36.95088 26.33505 30191 ft 402 kts 291°
2026-04-14 16:43 36.97255 26.27109 30192 ft 402 kts 291°
2026-04-14 16:44 36.99434 26.20677 30189 ft 401 kts 291°
2026-04-14 16:44 37.01616 26.14254 30191 ft 401 kts 291°
2026-04-14 16:45 37.04880 26.04618 30188 ft 400 kts 291°
2026-04-14 16:45 37.07051 25.98186 30179 ft 400 kts 291°
2026-04-14 16:46 37.08851 25.92843 30102 ft 402 kts 291°
2026-04-14 16:46 37.10295 25.88547 29510 ft 403 kts 291°
2026-04-14 16:46 37.11032 25.86355 29232 ft 402 kts 291°
2026-04-14 16:47 37.12116 25.83126 28837 ft 403 kts 291°
2026-04-14 16:47 37.13188 25.79927 28582 ft 403 kts 291°
2026-04-14 16:47 37.14275 25.76682 28305 ft 403 kts 291°
2026-04-14 16:47 37.15359 25.73441 28041 ft 403 kts 291°
2026-04-14 16:48 37.16445 25.70194 27783 ft 404 kts 291°
2026-04-14 16:48 37.17530 25.66943 27536 ft 405 kts 291°
2026-04-14 16:48 37.18619 25.63674 27266 ft 407 kts 291°
2026-04-14 16:48 37.19716 25.60379 26882 ft 411 kts 291°
2026-04-14 16:49 37.20823 25.57054 26511 ft 415 kts 291°
2026-04-14 16:49 37.21939 25.53698 26147 ft 417 kts 291°
2026-04-14 16:49 37.23056 25.50330 25769 ft 417 kts 291°
2026-04-14 16:49 37.24140 25.47008 25390 ft 404 kts 290°
2026-04-14 16:50 37.25180 25.43793 24933 ft 391 kts 290°
2026-04-14 16:50 37.26170 25.40734 24497 ft 377 kts 290°
2026-04-14 16:50 37.27148 25.37710 24091 ft 371 kts 290°
2026-04-14 16:50 37.28074 25.34706 23716 ft 364 kts 288°
2026-04-14 16:51 37.28892 25.31723 23283 ft 359 kts 287°
2026-04-14 16:51 37.29670 25.28767 22866 ft 354 kts 287°
2026-04-14 16:51 37.30435 25.25843 22423 ft 349 kts 287°
2026-04-14 16:51 37.31190 25.22980 22006 ft 341 kts 287°
2026-04-14 16:52 37.31933 25.20175 21607 ft 336 kts 287°
2026-04-14 16:52 37.32670 25.17406 21212 ft 333 kts 287°
2026-04-14 16:52 37.33402 25.14659 20840 ft 330 kts 287°
2026-04-14 16:52 37.34122 25.11964 20456 ft 328 kts 287°
2026-04-14 16:53 37.34844 25.09256 20060 ft 327 kts 287°
2026-04-14 16:53 37.35566 25.06541 19655 ft 327 kts 287°
2026-04-14 16:53 37.36566 25.03976 19233 ft 329 kts 302°
2026-04-14 16:53 37.38136 25.01865 18840 ft 333 kts 317°
2026-04-14 16:54 37.40018 25.00159 18461 ft 333 kts 321°
2026-04-14 16:54 37.41946 24.98540 18010 ft 332 kts 322°
2026-04-14 16:54 37.43876 24.96947 17563 ft 331 kts 322°
2026-04-14 16:54 37.45798 24.95357 17123 ft 330 kts 322°
2026-04-14 16:55 37.47685 24.93784 16694 ft 329 kts 322°
2026-04-14 16:55 37.49587 24.92188 16264 ft 328 kts 322°
2026-04-14 16:55 37.51485 24.90586 15845 ft 326 kts 322°
2026-04-14 16:55 37.53369 24.88990 15427 ft 326 kts 322°
2026-04-14 16:56 37.55248 24.87394 15021 ft 325 kts 322°
2026-04-14 16:56 37.57119 24.85801 14619 ft 324 kts 322°
2026-04-14 16:56 37.58984 24.84212 14215 ft 323 kts 322°
2026-04-14 16:56 37.60821 24.82645 13804 ft 323 kts 322°
2026-04-14 16:57 37.62677 24.81060 13356 ft 322 kts 322°
2026-04-14 16:57 37.64526 24.79481 12968 ft 320 kts 323°
2026-04-14 16:57 37.66366 24.77908 12581 ft 319 kts 323°
2026-04-14 16:57 37.68196 24.76342 12163 ft 318 kts 323°
2026-04-14 16:58 37.70032 24.74771 11737 ft 318 kts 323°
2026-04-14 16:58 37.71865 24.73201 11325 ft 318 kts 324°
2026-04-14 16:58 37.73696 24.71632 10939 ft 317 kts 324°
2026-04-14 16:58 37.75520 24.70068 10585 ft 316 kts 324°
2026-04-14 16:59 37.77336 24.68510 10230 ft 314 kts 325°
2026-04-14 16:59 37.79128 24.66972 9999 ft 304 kts 325°
2026-04-14 16:59 37.80832 24.65499 9817 ft 290 kts 322°
2026-04-14 16:59 37.82291 24.63835 9629 ft 277 kts 313°
2026-04-14 17:00 37.83595 24.62065 9411 ft 273 kts 311°
2026-04-14 17:00 37.84865 24.60288 9150 ft 271 kts 311°
2026-04-14 17:00 37.86127 24.58530 8891 ft 269 kts 311°
2026-04-14 17:00 37.87386 24.56785 8570 ft 269 kts 310°
2026-04-14 17:01 37.88613 24.54992 8239 ft 270 kts 309°
2026-04-14 17:01 37.89834 24.53174 7885 ft 272 kts 309°
2026-04-14 17:01 37.91046 24.51365 7529 ft 274 kts 309°
2026-04-14 17:01 37.92284 24.49517 7213 ft 275 kts 309°
2026-04-14 17:02 37.93517 24.47683 7017 ft 270 kts 309°
2026-04-14 17:02 37.94712 24.45909 6972 ft 260 kts 309°
2026-04-14 17:02 37.95862 24.44211 6955 ft 247 kts 309°
2026-04-14 17:02 37.96958 24.42599 6956 ft 238 kts 309°
2026-04-14 17:03 37.97981 24.40958 6863 ft 238 kts 304°
2026-04-14 17:03 37.98959 24.39216 6595 ft 243 kts 303°
2026-04-14 17:03 37.99923 24.37483 6329 ft 238 kts 303°
2026-04-14 17:03 38.00867 24.35774 6013 ft 235 kts 303°
2026-04-14 17:04 38.01795 24.34088 5708 ft 232 kts 303°
2026-04-14 17:04 38.02714 24.32415 5405 ft 230 kts 303°
2026-04-14 17:04 38.03619 24.30761 5103 ft 227 kts 303°
2026-04-14 17:04 38.04495 24.29158 4992 ft 214 kts 303°
2026-04-14 17:05 38.05345 24.27634 4984 ft 210 kts 304°
2026-04-14 17:05 38.06194 24.26124 4973 ft 212 kts 304°
2026-04-14 17:05 38.07072 24.24567 4672 ft 219 kts 304°
2026-04-14 17:05 38.07957 24.22998 4362 ft 218 kts 304°
2026-04-14 17:06 38.08833 24.21445 4079 ft 215 kts 304°
2026-04-14 17:06 38.09684 24.19932 3997 ft 208 kts 304°
2026-04-14 17:06 38.10466 24.18435 3971 ft 205 kts 291°
2026-04-14 17:06 38.10610 24.16686 3979 ft 203 kts 255°
2026-04-14 17:07 38.10138 24.14977 3799 ft 207 kts 246°
2026-04-14 17:07 38.09582 24.13298 3611 ft 204 kts 245°
2026-04-14 17:07 38.09033 24.11663 3426 ft 199 kts 245°
2026-04-14 17:07 38.08428 24.10118 3200 ft 193 kts 229°
2026-04-14 17:08 38.07482 24.08981 3049 ft 182 kts 221°
2026-04-14 17:08 38.06533 24.07921 2998 ft 181 kts 218°
2026-04-14 17:08 38.05548 24.06925 2919 ft 182 kts 216°
2026-04-14 17:08 38.04534 24.05944 2703 ft 181 kts 216°
2026-04-14 17:09 38.03566 24.05018 2459 ft 168 kts 216°
2026-04-14 17:09 38.02668 24.04161 2284 ft 157 kts 215°
2026-04-14 17:09 38.01814 24.03346 2048 ft 151 kts 215°
2026-04-14 17:09 38.00990 24.02560 1832 ft 148 kts 215°
2026-04-14 17:10 38.00176 24.01784 1639 ft 145 kts 215°
2026-04-14 17:10 37.99373 24.01016 1449 ft 147 kts 215°
2026-04-14 17:10 37.98553 24.00234 1232 ft 148 kts 216°
2026-04-14 17:10 37.97731 23.99449 1011 ft 147 kts 216°
2026-04-14 17:11 37.96911 23.98665 797 ft 148 kts 216°
2026-04-14 17:11 37.96089 23.97877 599 ft 148 kts 216°
2026-04-14 17:11 37.95269 23.97078 389 ft 148 kts 216°
2026-04-14 17:11 37.94458 23.96325 292 ft 130 kts 216°
2026-04-14 17:12 37.93905 23.95802 278 ft 68 kts 218°
2026-04-14 17:12 37.93626 23.95532 280 ft 42 kts 217°
2026-04-14 17:12 37.93478 23.95290 288 ft 31 kts 245°
2026-04-14 17:12 37.93489 23.95149 299 ft 14 kts 338°
2026-04-14 17:13 37.93545 23.95183 300 ft 9 kts 36°
2026-04-14 17:13 37.93578 23.95214 298 ft 0 kts 36°
2026-04-14 17:14 37.93579 23.95215 298 ft 1 kts 36°
2026-04-14 17:14 37.93589 23.95224 298 ft 3 kts 36°
2026-04-14 17:14 37.93592 23.95226 297 ft 0 kts 35°
2026-04-14 17:16 37.93612 23.95234 299 ft 9 kts
2026-04-14 17:16 37.93666 23.95196 298 ft 9 kts 307°
2026-04-14 17:17 37.93703 23.95132 299 ft 9 kts 306°
2026-04-14 17:17 37.93739 23.95074 299 ft 7 kts 321°
2026-04-14 17:17 37.93784 23.95086 301 ft 7 kts 34°
2026-04-14 17:17 37.93823 23.95082 302 ft 6 kts 311°
2026-04-14 17:18 37.93838 23.95057 300 ft 0 kts 307°